Theta_e
324 327 326 327 327 325 325 325 325 328 332 332 327 325 328 331 324 321 330 335 332 332 335 335 338 342 343 346 350 349 350 350 348 347 348 349 349 349 349 349 349 350 350 350 352 352 353 353 353 355 355 355 356 356 356 357 357 357 357 358 360 360 360 359 358 358 356 352 350 350 349 349 349 348 348 348 348 349 350 351 350 349 350 351 353 353 354
324 326 326 329 328 325 326 325 325 328 329 331 330 328 330 331 328 328 332 333 334 336 336 337 340 343 345 349 350 349 350 350 348 347 347 348 349 349 349 349 349 349 349 349 351 352 353 353 353 355 355 354 355 355 355 356 356 357 358 358 360 360 360 360 360 360 360 358 355 354 354 354 354 352 349 348 349 349 350 350 350 349 349 349 350 351 352
320 325 328 329 328 325 325 324 326 327 327 328 330 330 332 331 329 331 334 332 334 338 339 341 344 345 348 351 350 349 349 348 347 347 347 348 349 349 349 349 349 349 349 350 351 351 352 352 353 354 354 354 354 354 354 354 355 357 358 357 357 359 359 360 361 361 361 361 360 358 358 357 357 356 352 349 349 349 349 350 350 351 350 350 349 349 350
316 323 325 324 325 325 322 321 325 326 325 326 327 329 332 330 328 330 330 328 334 342 343 343 345 347 347 349 351 349 347 346 346 346 346 348 349 348 348 349 349 348 349 349 351 352 351 351 352 352 353 353 354 354 354 354 354 356 358 358 356 357 358 358 361 362 361 362 362 361 360 360 359 359 356 353 351 351 350 351 351 352 352 352 351 349 349
315 322 323 321 322 320 317 320 324 325 326 326 326 328 332 333 332 329 326 327 336 343 341 340 343 345 346 349 350 347 346 346 346 345 347 348 348 348 347 348 348 347 348 349 350 350 351 351 352 352 352 353 353 353 354 354 354 355 357 358 357 356 357 358 360 362 362 362 362 361 362 362 360 360 358 356 354 352 353 352 352 352 353 353 352 351 350
315 321 323 321 318 316 318 325 328 327 328 327 325 326 330 333 333 331 330 332 337 340 340 340 343 345 348 349 347 345 346 347 346 347 348 347 347 347 347 347 347 347 347 348 348 349 349 350 351 351 352 352 352 353 353 353 354 354 355 357 356 356 356 357 359 361 361 362 362 362 362 362 361 361 360 359 357 354 355 355 354 354 355 354 353 352 352
315 319 321 317 315 318 325 331 332 332 333 334 332 331 331 333 333 334 335 335 336 338 341 343 346 348 349 347 346 346 346 346 347 348 348 347 347 346 347 347 347 347 347 347 347 348 349 350 351 351 351 351 352 352 352 352 353 353 354 356 356 356 357 357 359 360 361 362 361 362 363 362 363 362 361 360 359 357 357 357 356 357 356 354 354 354 354
318 317 316 316 318 323 327 330 333 335 336 337 334 329 329 332 333 334 336 335 336 340 343 346 348 348 347 345 345 346 346 346 347 347 347 347 345 346 346 346 346 347 346 346 347 348 348 350 351 351 350 350 351 351 351 351 352 353 354 355 355 357 356 355 358 360 361 361 360 361 362 362 362 362 362 361 360 359 358 357 357 358 357 356 355 355 356
320 315 313 317 320 320 322 326 331 333 332 333 331 324 324 331 332 333 336 336 338 344 347 349 348 346 345 345 344 346 346 345 345 345 345 345 345 345 345 345 345 346 346 346 347 347 348 350 350 350 349 349 350 351 351 352 352 353 355 355 355 356 355 354 357 359 358 359 359 359 360 361 361 362 362 362 361 360 358 358 358 357 357 357 356 356 357
321 316 314 317 316 316 321 327 332 332 329 332 334 326 324 330 332 332 335 338 342 348 349 348 347 345 345 345 346 346 346 344 343 343 343 345 345 344 344 344 344 345 346 347 348 348 348 349 349 349 349 348 349 351 352 352 352 353 355 355 355 356 355 353 354 355 355 357 359 359 360 361 360 360 361 362 362 361 360 359 358 357 357 357 357 357 358
319 317 315 316 315 317 325 331 333 333 330 333 335 324 321 331 337 336 336 339 343 348 349 347 347 344 343 344 346 345 344 344 342 341 342 344 344 344 344 344 345 346 347 347 347 348 349 348 348 348 348 347 348 349 350 351 351 353 355 355 354 353 353 354 356 356 356 358 359 359 360 360 359 360 361 362 362 362 360 360 359 358 358 358 358 359 358
316 317 315 315 316 322 332 333 332 332 333 335 330 320 321 335 342 338 339 341 344 348 348 346 345 344 343 346 347 343 342 343 342 341 342 342 343 344 344 344 345 346 347 346 347 348 348 348 348 348 347 346 347 349 349 348 348 350 353 355 353 350 351 354 357 358 358 359 358 358 359 359 359 360 361 361 362 362 360 359 359 359 359 358 358 357 357
315 315 315 315 318 328 335 333 332 334 334 332 325 321 329 340 341 339 342 344 345 348 347 344 343 343 345 346 345 343 342 342 342 343 343 343 343 344 344 345 346 346 346 346 347 348 348 348 348 347 346 346 346 347 347 346 347 347 349 352 352 349 350 353 355 356 357 357 357 357 358 358 358 358 359 359 360 360 359 358 359 359 359 357 356 355 354
315 316 316 314 319 331 337 334 335 335 330 327 327 332 339 341 339 342 345 344 346 348 346 343 343 343 344 344 344 343 342 341 341 343 343 343 343 344 344 344 345 345 345 346 347 347 347 347 348 347 346 345 345 345 345 344 344 344 346 348 349 348 349 349 350 353 354 355 356 355 354 355 356 355 355 355 356 357 357 357 357 358 357 355 354 353 352
318 317 317 315 319 331 337 335 337 336 331 331 336 340 341 339 340 344 344 344 346 345 343 343 343 343 343 343 343 343 341 341 341 342 343 343 343 343 344 344 344 344 345 345 346 346 346 346 348 347 347 346 346 345 345 344 343 342 342 343 345 346 346 345 346 348 348 350 353 353 353 354 353 353 353 353 353 354 354 354 355 355 354 353 351 350 348
319 314 317 321 327 334 335 334 337 338 336 339 339 338 338 340 341 341 340 343 344 343 344 344 342 343 344 343 343 343 342 341 341 341 343 343 343 343 343 343 343 343 343 344 345 344 345 346 346 346 347 346 346 345 345 344 343 342 341 341 343 345 344 344 345 345 346 348 349 350 351 352 352 352 352 352 352 353 353 353 353 353 351 350 349 347 344
325 322 327 334 336 335 334 335 339 340 340 342 339 336 337 339 339 339 339 340 342 343 344 344 342 343 344 343 343 343 341 340 340 341 342 342 342 343 343 343 343 342 342 343 344 344 344 344 344 345 345 345 344 344 344 344 344 343 342 342 343 343 342 343 344 344 345 346 346 347 348 349 350 351 351 352 352 352 352 351 351 351 348 347 346 345 343
331 331 335 338 337 336 335 335 336 336 338 341 340 337 338 339 339 340 339 338 341 343 343 343 342 343 343 343 343 342 340 340 340 340 342 342 342 343 343 342 342 342 342 342 343 344 343 342 342 343 342 343 343 342 342 343 343 343 342 341 340 339 339 339 340 342 343 342 342 343 345 346 347 348 349 351 350 350 350 350 349 348 345 343 342 340 338
327 327 332 335 336 338 337 335 335 336 337 340 341 340 340 341 340 341 340 341 342 342 341 343 343 343 343 342 341 340 339 339 338 340 341 341 341 341 341 341 342 342 341 341 341 342 341 341 341 341 341 342 342 341 342 342 342 341 341 340 338 337 336 336 336 338 339 338 339 340 341 342 344 345 346 347 347 346 346 346 345 343 340 338 337 335 333
330 332 337 338 338 341 340 337 337 336 336 339 342 342 342 342 341 341 342 342 341 341 342 343 344 343 342 341 340 339 338 338 338 339 340 340 340 340 340 340 340 341 341 340 340 340 339 339 340 340 341 342 342 341 341 341 341 340 339 338 337 336 335 334 333 333 333 333 335 336 337 338 339 339 340 340 340 340 341 342 342 340 338 337 336 334 333
332 335 340 340 339 340 340 339 339 339 338 340 342 342 341 341 341 342 342 342 341 341 342 343 344 343 342 340 339 339 338 337 338 339 339 339 339 339 339 339 339 340 340 340 339 338 338 338 338 339 341 341 340 341 340 340 340 339 338 338 337 336 335 334 333 331 330 330 330 331 332 333 334 334 334 335 336 336 336 338 338 338 338 338 336 335 335
327 331 338 339 336 334 335 336 338 340 340 341 342 342 341 340 340 341 342 342 343 343 343 343 343 341 341 340 339 338 338 338 339 339 338 338 338 338 338 337 338 339 339 339 339 338 338 337 338 338 339 339 340 339 339 339 339 338 338 338 337 336 335 334 333 332 331 330 329 329 329 330 330 329 330 332 334 334 333 334 336 337 338 337 336 335 334
329 333 337 337 334 332 334 336 338 339 341 342 342 342 341 339 339 340 341 342 343 344 343 343 341 340 339 340 339 337 337 339 339 338 337 337 336 336 336 337 337 337 338 338 338 338 338 338 337 337 337 338 339 339 338 339 339 338 338 338 337 336 334 333 333 333 332 331 331 331 330 330 329 327 326 326 328 330 331 333 334 335 335 335 333 332 331
334 335 336 335 333 334 336 339 340 341 341 341 341 341 339 338 338 340 340 342 344 343 341 341 340 339 339 340 339 338 338 338 338 337 336 336 335 335 335 336 336 335 336 336 336 336 337 338 337 337 337 337 337 338 338 338 338 338 338 337 337 336 334 333 333 333 333 332 332 332 331 331 331 330 327 324 324 325 327 329 330 330 330 330 329 328 326
341 341 342 340 338 337 337 338 340 341 341 341 341 340 339 339 339 340 341 343 344 342 340 339 340 339 339 340 339 338 338 338 337 336 335 335 334 333 334 335 336 336 335 335 335 335 336 336 336 336 337 337 337 337 337 337 338 337 337 337 337 335 334 334 334 334 334 334 333 333 333 332 331 331 330 328 325 323 322 323 323 323 324 324 323 322 322
342 345 344 341 340 340 337 335 337 340 342 342 341 340 340 341 342 342 342 344 345 342 340 339 340 339 339 338 338 337 337 337 337 336 335 334 333 333 333 335 336 336 335 335 335 335 335 335 335 335 336 336 336 336 336 335 335 335 336 336 335 334 334 334 334 334 334 334 333 333 333 332 331 331 330 330 329 327 325 324 323 321 320 319 318 318 317
340 342 340 338 339 339 337 337 339 339 341 342 341 339 341 344 344 343 343 344 344 342 340 339 339 339 338 337 337 337 337 336 336 335 334 334 333 332 332 333 334 335 335 335 335 335 334 334 334 334 334 334 334 334 334 334 333 332 332 332 332 332 332 332 332 332 332 332 332 332 332 331 330 329 328 328 328 327 327 327 326 324 322 319 317 316 314
339 340 340 339 340 340 340 341 342 340 341 343 342 340 342 344 343 342 342 344 344 343 341 339 338 338 338 337 337 337 336 335 335 335 334 334 333 333 333 333 332 333 333 334 334 335 335 334 333 334 334 333 333 332 332 332 332 331 331 330 330 330 330 329 329 329 330 330 330 329 329 327 325 323 322 322 322 322 322 322 322 322 321 318 315 312 311
338 340 341 341 342 343 342 341 341 342 342 342 342 342 342 342 341 340 341 343 343 343 342 340 339 339 338 337 336 336 336 335 335 335 334 334 333 333 333 333 332 332 333 333 333 333 334 334 334 334 334 333 333 332 331 332 332 332 331 330 330 330 330 329 328 327 328 328 328 326 324 323 321 319 318 318 318 319 319 320 320 320 320 320 317 316 315
340 340 340 339 340 342 342 340 341 342 340 340 341 341 340 339 339 339 340 341 342 342 342 342 341 339 337 336 336 336 335 335 335 334 333 334 333 333 333 333 333 333 334 334 334 333 333 333 333 334 333 333 333 332 332 333 333 333 333 333 332 333 333 332 330 327 327 327 327 325 323 321 320 319 319 318 318 318 318 319 320 320 322 323 322 323 322
342 341 340 340 339 338 339 340 341 341 340 340 340 340 339 340 340 339 340 341 342 342 343 343 341 340 337 336 336 334 334 334 335 334 333 334 334 334 334 334 334 334 335 335 335 334 334 333 333 333 334 334 333 332 332 333 332 332 331 331 332 333 333 332 331 330 330 330 329 327 325 323 322 321 320 319 319 319 319 319 319 321 323 324 323 324 324
341 341 341 340 339 337 339 341 342 342 341 340 339 339 340 340 340 340 340 341 342 343 344 344 342 340 338 337 335 334 334 334 335 334 333 334 335 335 334 334 334 335 336 335 335 335 335 333 332 332 333 333 333 332 332 332 332 331 330 329 330 331 332 332 332 331 332 332 331 330 329 328 326 325 324 323 322 322 322 321 320 321 323 324 325 326 325
338 340 342 341 340 340 341 341 341 342 342 341 339 340 340 339 339 340 341 341 343 344 345 344 342 339 338 336 335 334 334 335 335 334 334 334 335 335 334 334 334 335 335 335 335 334 334 333 332 331 332 332 332 331 331 331 331 332 331 331 330 330 331 331 331 331 331 331 331 331 331 331 330 330 329 328 327 326 325 324 323 323 324 325 326 326 326
334 336 338 340 340 340 340 340 340 341 342 341 339 339 340 340 340 341 342 342 342 343 344 344 342 340 338 336 334 334 335 335 334 335 334 334 335 335 334 335 334 333 333 333 333 332 332 332 331 331 331 331 331 331 331 331 331 332 332 331 330 330 331 331 331 331 330 331 331 331 331 331 331 330 330 329 329 328 328 327 326 325 325 325 325 324 324
332 331 332 336 338 336 335 337 340 340 341 341 340 340 341 342 342 342 342 341 341 343 344 344 342 340 338 335 334 334 335 334 335 335 334 334 334 335 334 334 333 332 331 331 330 330 330 330 329 330 330 330 330 330 331 331 331 331 332 331 331 330 331 330 330 329 330 330 330 331 330 330 330 330 330 330 329 329 328 328 327 326 326 326 325 324 323
332 331 332 336 338 335 332 335 339 340 340 340 340 340 342 343 342 342 342 341 340 343 344 343 341 339 337 335 334 334 333 334 334 334 334 334 335 334 334 333 331 331 330 330 329 328 328 327 327 328 329 329 329 329 329 330 331 331 331 331 330 330 330 329 329 329 329 329 329 329 329 330 329 329 329 328 328 328 327 327 326 326 326 326 325 324 323
332 332 334 337 340 338 337 339 342 340 340 341 341 341 344 344 342 342 341 340 341 343 343 342 340 339 337 335 334 333 333 334 334 334 334 335 334 333 333 333 331 331 331 330 328 328 327 324 322 323 325 327 327 327 326 327 329 330 329 328 328 327 327 327 327 328 328 328 327 327 327 328 327 327 327 326 326 326 325 325 324 324 325 325 325 324 323
333 334 335 338 340 341 341 342 343 341 340 342 343 343 343 343 342 341 340 339 340 342 342 341 340 339 337 334 332 331 333 334 334 335 335 335 333 333 334 333 331 332 332 330 329 328 324 319 317 319 321 322 323 324 324 325 326 328 327 326 326 325 325 325 325 326 326 326 326 325 325 325 324 324 323 323 324 324 324 324 324 323 323 323 323 323 323
335 336 337 339 340 342 342 343 343 341 341 342 344 344 343 343 341 340 339 339 340 341 341 341 340 339 337 334 332 332 333 334 335 335 335 334 333 334 333 332 332 332 331 329 328 325 320 315 316 319 320 319 320 322 321 321 324 326 325 324 324 324 324 324 324 324 324 324 324 323 323 322 322 321 321 320 321 322 323 324 323 323 323 323 322 322 322
336 337 339 340 340 342 343 343 343 341 341 342 343 344 344 343 341 340 339 339 340 340 340 341 341 340 337 335 333 333 334 335 336 336 334 333 333 334 333 333 333 332 329 328 326 322 316 314 317 319 319 319 321 321 318 317 320 322 322 322 322 323 323 323 323 323 323 323 322 322 322 321 321 320 319 318 318 320 321 322 321 322 322 323 322 322 322
336 339 341 341 341 342 343 343 342 342 343 343 343 344 344 342 341 340 340 340 340 340 340 341 341 340 338 335 333 333 335 337 336 335 334 334 334 334 334 334 333 330 327 326 324 318 314 316 318 318 317 318 320 320 318 317 318 320 320 320 321 322 322 322 323 322 322 322 321 321 321 320 319 318 317 317 318 319 320 320 320 320 322 322 322 322 322
337 340 341 342 342 343 343 343 342 344 345 344 343 344 343 342 341 341 340 340 340 340 340 341 341 340 338 336 334 334 337 338 336 336 335 334 334 334 334 334 332 328 325 323 320 317 316 317 318 317 317 318 318 316 317 318 319 319 319 319 319 320 320 320 320 321 320 320 319 319 318 318 318 317 317 317 318 318 319 319 319 320 321 321 321 321 322
338 340 340 341 342 343 343 343 343 345 345 344 344 344 343 342 341 341 341 340 340 340 340 340 340 339 338 337 336 336 338 338 337 336 335 334 333 335 335 333 331 328 324 321 320 319 319 319 317 315 316 318 317 315 316 318 318 318 318 319 318 318 318 318 318 318 317 317 317 317 317 317 317 317 317 318 318 318 318 319 320 320 320 320 321 321 321
340 340 341 342 343 343 343 343 344 344 344 345 344 343 343 342 341 341 341 341 340 340 340 340 339 338 338 338 338 338 338 337 336 336 335 334 334 335 334 333 331 328 324 321 321 321 320 320 316 312 312 315 316 316 317 318 318 317 318 318 316 316 316 316 315 316 316 316 316 317 317 317 317 317 317 318 318 319 319 319 320 320 320 320 320 320 320
340 340 341 342 343 343 343 343 343 344 344 345 344 343 343 343 342 341 341 341 340 340 340 340 339 338 338 338 338 338 337 337 336 336 335 334 334 333 333 331 329 326 322 321 321 322 321 319 315 311 310 313 315 316 318 319 318 318 318 317 317 316 315 315 315 315 315 315 316 316 315 315 316 317 317 318 318 318 319 319 319 318 318 318 318 319 319
340 340 341 342 343 343 342 342 343 344 345 345 344 343 343 343 342 341 341 341 340 340 339 339 339 338 338 337 338 337 337 336 336 335 334 334 334 333 332 330 328 325 322 321 321 322 322 318 314 311 311 312 314 316 318 319 318 318 318 317 316 315 315 315 315 315 314 314 315 315 315 315 315 316 317 317 318 318 318 318 317 317 317 317 318 318 318
340 340 341 342 342 343 343 343 344 344 344 343 343 343 343 343 341 341 340 340 339 339 338 338 338 338 338 337 337 337 337 336 336 335 335 334 334 333 330 329 327 326 323 321 322 323 321 317 313 313 312 312 313 316 318 318 317 318 317 316 316 315 315 315 315 314 314 314 315 314 314 314 315 316 316 316 316 317 317 316 316 316 316 316 316 316 316
339 339 340 340 341 342 342 342 343 343 343 342 342 343 343 341 340 339 338 338 338 338 338 338 338 338 338 338 337 337 336 335 335 335 335 335 334 331 329 328 327 326 322 320 322 323 320 315 314 314 313 312 313 316 317 317 317 318 317 316 315 315 315 315 315 315 315 314 314 314 314 314 315 316 315 315 315 315 315 314 314 314 314 315 315 315 315
339 339 339 339 340 340 340 340 341 341 342 342 342 341 341 339 337 336 336 337 337 337 336 334 335 336 338 337 337 336 335 334 334 334 334 333 332 330 328 327 326 324 321 321 323 322 318 315 315 314 312 312 314 316 316 317 317 317 316 315 315 315 315 315 315 315 315 315 314 315 315 315 315 315 315 314 314 313 313 312 313 313 313 313 313 313 313
338 339 339 339 340 340 340 340 340 340 340 340 339 338 337 337 337 335 335 336 336 336 334 333 333 335 337 337 336 335 334 333 332 332 330 329 329 328 327 325 323 321 320 322 324 321 317 316 315 313 312 313 315 316 316 316 316 316 315 315 315 315 315 315 314 314 314 314 314 314 314 314 315 314 314 313 313 313 312 312 313 312 311 311 311 311 311
338 338 338 338 339 339 339 339 338 337 337 337 336 336 336 336 336 336 335 336 336 335 334 334 334 335 336 336 335 333 331 331 330 329 328 327 327 327 326 324 322 320 321 323 323 320 317 316 315 313 313 314 315 315 315 315 315 314 314 314 314 314 313 312 312 312 313 314 314 314 313 313 313 313 313 312 312 312 311 311 311 310 309 309 309 310 310
337 337 337 337 337 337 337 337 336 336 336 335 334 334 334 335 336 336 336 336 336 336 335 336 336 335 335 334 332 330 330 329 328 327 326 326 326 325 324 323 321 320 321 323 322 319 317 316 315 314 313 314 314 314 314 314 313 313 313 313 313 313 312 312 313 313 313 313 313 313 312 312 312 312 312 311 311 310 310 310 309 309 309 309 309 309 310
Wind_Speed
2 2 2 3 4 4 3 4 4 4 5 6 6 6 4 3 5 5 4 4 7 7 7 6 5 4 4 2 2 2 2 3 3 3 3 3 4 4 4 4 4 4 4 4 4 5 5 6 8 9 11 13 13 14 15 16 17 19 19 20 20 20 20 21 21 20 20 20 20 19 18 18 19 19 19 18 18 18 18 17 17 17 17 16 15 15 14
5 5 4 4 6 6 5 6 5 5 6 7 7 8 7 6 8 9 8 9 9 7 7 5 4 4 3 1 1 1 1 2 2 3 3 3 3 3 4 4 4 4 4 4 4 5 5 6 7 8 10 12 14 15 16 17 18 19 19 20 21 21 20 21 21 20 20 19 19 20 20 19 20 20 20 19 18 18 18 17 17 17 16 16 15 15 14
6 7 6 7 8 7 7 7 6 6 7 8 8 8 7 7 8 8 8 10 8 3 2 2 2 2 2 2 2 1 0 1 2 3 3 2 3 3 3 4 4 4 4 4 4 5 5 6 7 8 9 11 12 15 18 19 18 19 20 21 22 22 21 20 20 20 19 18 18 19 19 19 19 19 20 19 19 18 18 18 18 17 16 16 16 15 14
6 6 8 9 8 8 9 9 9 9 8 8 7 6 6 6 7 7 7 7 3 2 2 1 2 2 3 3 2 1 1 2 2 4 3 2 2 3 3 3 3 4 4 5 5 6 6 7 7 8 9 10 11 14 16 18 19 18 19 21 22 22 22 21 19 19 20 19 18 18 18 18 18 18 18 18 18 18 18 18 18 18 17 17 16 15 14
4 4 6 8 7 8 9 6 6 8 8 8 7 5 6 6 6 6 6 4 4 3 1 3 3 3 4 2 1 1 2 3 3 4 3 2 1 3 3 3 3 3 4 5 6 7 7 8 8 8 9 11 12 13 15 17 18 19 19 20 22 22 22 22 21 20 20 20 20 20 19 19 18 17 17 18 18 17 17 17 17 17 17 17 16 16 15
4 2 2 6 8 8 3 1 2 4 4 6 7 6 6 5 5 6 6 6 4 2 3 4 3 3 2 2 2 2 3 4 4 4 3 3 2 3 4 4 3 3 4 5 7 8 9 9 9 10 10 11 13 13 14 15 17 19 20 21 23 24 23 23 22 21 20 20 20 20 19 19 18 17 17 17 18 17 16 16 16 16 17 17 16 15 15
5 1 3 7 8 5 1 4 1 2 3 5 7 7 6 5 7 8 8 8 6 4 3 3 2 2 1 1 2 3 4 4 3 3 3 3 3 4 4 4 4 5 6 7 8 9 9 10 10 10 10 12 14 14 15 16 17 19 20 22 24 24 23 23 22 22 21 20 19 18 17 16 16 16 16 17 17 17 17 17 17 17 17 16 16 15 16
5 4 5 7 6 4 2 4 3 2 3 5 6 7 5 5 8 8 8 7 5 2 3 2 1 1 1 2 3 3 4 3 2 3 3 3 4 4 4 4 5 6 7 8 9 9 10 11 10 10 11 12 13 15 16 17 18 19 20 23 24 24 23 24 23 22 22 20 19 17 15 15 15 15 16 16 17 17 17 16 16 16 16 16 16 16 16
5 7 7 6 7 8 7 5 5 4 5 5 5 6 3 3 6 6 6 6 3 2 2 2 1 0 3 4 3 4 4 3 2 3 3 3 4 4 5 6 6 7 8 8 9 9 10 11 9 9 11 13 13 13 14 16 17 18 19 22 24 23 24 25 24 23 23 20 18 17 15 14 15 14 14 15 15 15 16 16 17 17 17 16 16 16 16
4 7 8 6 7 7 3 1 4 5 5 3 3 6 4 3 3 4 4 3 1 3 3 3 2 2 4 4 2 4 4 2 2 3 3 3 4 5 6 7 7 7 7 8 8 9 9 8 8 9 11 12 12 11 12 13 15 15 16 19 21 21 23 25 24 23 23 19 16 16 15 14 14 14 13 13 13 14 14 15 16 16 15 14 14 14 14
4 6 7 6 7 4 1 2 5 5 3 3 3 5 4 3 3 1 2 2 1 3 4 4 3 3 4 2 2 4 3 2 1 3 3 4 5 5 5 6 7 7 7 8 7 6 6 7 8 9 9 10 10 10 11 12 13 14 15 16 18 20 20 21 19 16 16 15 13 13 14 14 14 13 13 13 12 11 12 12 13 13 13 12 12 12 12
5 6 7 7 6 1 4 5 5 5 3 4 5 6 2 4 4 1 1 1 2 4 4 4 4 4 4 2 3 4 2 1 0 2 3 4 5 5 5 7 8 8 7 7 6 4 4 7 8 8 7 6 6 6 9 11 13 14 13 11 13 16 14 13 13 13 11 11 12 12 13 13 12 12 11 11 10 10 10 10 10 10 10 11 11 11 11
6 6 7 7 4 2 5 6 6 6 5 5 6 4 1 3 2 2 1 1 2 4 4 4 4 2 1 2 3 3 2 1 1 1 3 4 4 5 6 8 9 9 7 5 4 4 6 7 7 6 5 4 4 3 1 2 2 4 6 6 8 10 8 7 9 11 10 10 11 13 12 12 11 12 12 11 10 10 9 9 9 9 9 11 12 11 10
6 5 6 8 4 2 5 6 7 6 5 4 3 0 2 1 1 2 1 2 2 4 4 4 2 0 2 3 3 3 2 1 2 1 3 5 5 5 6 7 8 8 6 4 4 6 7 7 6 6 6 6 7 7 5 4 4 3 1 3 5 8 9 7 6 7 8 10 11 12 13 12 12 12 12 11 10 10 10 10 11 11 12 15 15 12 9
5 5 6 7 4 2 8 8 6 5 5 1 1 1 1 0 0 1 2 2 2 4 5 4 3 2 3 4 2 2 2 1 1 2 3 5 6 6 6 6 8 8 6 6 7 8 8 7 5 6 8 10 10 9 8 5 2 2 1 2 5 7 7 7 6 6 7 7 7 8 9 10 12 12 12 12 11 11 12 13 14 15 14 15 15 11 8
5 6 5 3 1 4 10 8 3 3 3 2 2 1 0 1 1 2 2 2 2 4 4 4 4 4 4 3 3 2 2 1 1 2 3 5 7 7 7 7 8 7 6 6 7 7 7 6 5 7 8 10 12 12 10 7 4 5 5 5 6 7 8 8 8 9 7 4 5 6 6 7 9 10 11 11 10 10 12 13 14 15 13 12 12 11 9
4 4 2 1 2 6 10 6 1 2 3 3 1 2 1 0 1 1 2 2 2 3 4 4 4 4 3 4 3 3 2 1 1 2 3 5 6 7 7 8 8 6 5 6 7 7 8 8 8 9 10 11 12 12 10 8 7 8 9 9 10 11 11 10 10 10 10 7 6 6 6 6 6 8 9 10 10 11 12 12 12 13 12 10 11 11 10
3 1 1 2 3 5 8 6 2 2 3 3 1 2 1 1 0 1 2 2 1 3 4 3 3 4 4 4 4 3 3 1 1 1 3 5 6 7 7 8 9 6 5 6 7 8 9 9 8 9 10 11 11 11 10 9 8 9 10 10 11 11 12 12 11 11 11 11 9 7 6 5 3 4 6 7 8 10 11 10 9 9 9 9 9 9 9
3 3 4 5 5 6 8 7 4 2 2 3 3 2 1 0 1 1 1 1 1 2 3 3 3 4 4 4 4 4 3 2 1 2 3 5 7 8 8 9 9 7 6 6 7 8 9 9 8 8 9 11 11 10 10 9 8 9 10 10 10 10 10 11 12 12 13 12 11 10 9 9 8 5 4 5 7 7 7 6 5 5 6 8 9 9 10
3 1 4 5 4 4 5 5 4 4 4 5 4 2 1 1 1 1 0 1 2 3 3 3 4 5 5 5 4 4 3 2 2 3 3 4 7 9 9 8 8 8 8 7 7 8 9 9 9 8 9 9 9 9 9 8 8 10 11 11 11 11 10 10 11 13 14 15 16 15 14 13 12 11 11 11 11 9 7 6 7 7 8 9 9 10 10
5 2 4 5 4 4 5 7 5 4 4 6 6 4 3 3 3 2 2 2 2 3 4 4 5 5 5 5 4 4 4 3 3 4 4 5 6 8 8 8 10 10 9 7 8 9 9 9 10 10 10 9 9 8 7 7 8 10 11 12 12 12 11 10 11 12 13 15 18 20 20 19 17 15 13 11 12 11 9 8 8 9 10 10 9 8 8
7 4 7 8 4 2 5 9 9 7 6 6 7 6 5 6 5 4 4 3 3 4 6 6 5 5 5 5 5 5 5 5 5 5 4 5 6 8 9 10 11 11 9 8 8 10 10 10 9 9 10 10 9 8 8 8 9 10 11 13 12 12 11 11 10 11 13 14 15 18 21 23 23 21 18 14 13 12 11 9 9 10 11 11 9 7 7
4 1 7 10 5 1 2 5 8 9 8 7 8 7 6 6 5 5 5 6 6 6 5 5 6 5 6 7 6 5 6 7 6 5 4 5 7 9 10 10 11 11 10 9 10 11 10 10 9 10 10 9 9 8 9 10 11 11 11 12 12 11 11 10 10 10 12 12 12 13 15 18 20 22 22 22 20 17 15 13 12 12 12 11 10 9 11
0 2 5 7 5 1 4 5 6 9 9 7 8 8 6 6 5 5 5 6 7 7 5 5 6 6 6 7 7 6 8 8 7 6 5 6 8 10 10 10 11 11 10 10 11 11 10 10 11 12 12 10 9 8 8 9 11 11 11 12 12 12 11 10 10 10 11 12 12 13 14 14 15 16 18 21 23 22 20 18 17 17 16 14 13 13 14
2 2 4 5 4 4 6 6 5 7 8 7 7 6 6 5 5 5 6 6 7 8 7 6 7 7 7 8 7 7 9 9 8 7 7 7 7 9 10 11 11 11 11 10 11 11 12 12 12 13 13 12 10 10 9 9 11 12 12 13 13 12 11 11 11 11 11 11 12 13 13 13 13 13 14 15 18 20 21 20 20 19 18 16 15 15 14
3 3 5 6 5 5 5 5 5 7 8 7 6 6 5 5 4 5 7 7 8 9 8 7 8 8 8 8 8 8 9 9 8 7 7 7 8 8 9 10 11 10 10 11 12 13 13 13 14 15 15 14 13 12 12 12 13 13 14 14 14 14 13 13 13 13 12 12 11 12 11 11 11 12 13 13 14 15 16 17 17 16 16 15 14 13 13
2 3 5 5 5 6 5 3 4 7 9 7 6 6 7 6 6 6 7 8 9 9 9 9 9 9 9 9 9 9 10 9 8 7 6 7 7 7 8 10 11 10 10 11 12 12 13 13 15 16 16 15 14 14 14 15 15 15 15 16 15 15 14 14 13 13 13 12 12 11 11 11 11 11 11 11 11 11 11 11 11 11 11 11 10 10 11
3 4 4 2 2 5 6 4 4 7 9 7 7 7 7 7 7 7 8 9 10 9 9 10 10 9 10 10 10 11 11 9 8 7 6 6 7 7 8 10 10 10 10 10 10 11 12 12 14 16 15 14 14 14 14 15 15 15 14 14 14 13 13 13 13 12 12 12 11 11 10 11 11 11 11 11 11 11 11 10 10 10 10 10 10 11 11
5 5 3 1 2 2 6 6 6 7 9 8 8 8 8 8 8 8 9 10 10 9 10 10 10 10 10 10 12 12 11 9 8 7 7 6 7 7 8 8 9 9 10 10 9 10 10 11 13 14 14 13 13 13 14 14 13 13 12 12 12 13 12 12 12 12 12 12 11 11 11 11 11 11 11 11 11 11 11 11 10 10 10 10 10 11 11
5 5 4 2 1 4 7 8 7 8 9 9 8 8 8 9 8 8 9 11 10 9 10 11 11 10 10 11 12 12 11 9 8 8 8 7 7 7 8 8 8 9 9 10 10 10 9 10 11 11 11 11 12 12 13 13 13 12 12 12 12 12 12 12 12 13 13 12 12 12 12 12 11 11 11 11 11 11 11 11 10 10 9 9 9 10 10
5 6 5 3 4 6 7 7 7 8 9 9 10 9 9 9 9 8 9 10 10 10 12 12 12 11 11 11 12 12 11 10 9 9 8 8 8 8 8 8 8 8 9 10 10 9 10 10 10 9 8 9 9 10 11 12 12 12 12 13 13 13 12 12 12 12 12 12 11 11 12 12 12 12 12 11 11 11 11 10 10 10 9 9 9 10 10
6 7 6 5 5 6 7 6 7 8 9 10 10 10 10 9 9 8 9 9 10 11 12 12 12 12 12 12 12 11 11 11 11 10 10 9 8 8 7 7 7 8 8 8 8 9 9 10 9 8 7 7 7 8 9 10 11 11 12 12 12 12 11 11 12 12 11 12 12 12 11 12 12 12 12 12 11 11 11 11 10 10 10 10 10 9 9
6 6 7 7 7 7 8 8 8 9 10 10 10 9 8 8 8 7 8 10 11 12 12 12 12 13 13 13 12 12 12 12 11 11 11 10 10 8 7 6 7 8 7 6 7 8 9 9 8 7 7 7 7 8 9 9 9 9 10 10 10 10 9 10 11 11 11 11 11 11 11 11 11 11 11 11 11 11 11 11 11 10 10 10 9 9 9
8 7 7 9 10 10 10 10 9 9 9 9 9 8 8 8 8 8 9 11 11 12 12 13 14 15 14 14 13 13 12 11 10 11 12 12 11 9 7 6 7 8 7 7 7 7 8 8 7 6 6 6 7 7 7 8 8 8 8 8 9 9 9 8 8 9 9 9 10 9 9 10 10 9 9 9 9 9 9 9 10 10 10 10 9 9 11
9 9 9 9 10 10 9 9 9 9 9 9 9 8 8 9 9 9 10 11 12 12 14 15 16 16 15 14 14 14 14 13 12 12 13 13 11 9 7 7 8 8 8 7 7 7 7 7 6 5 5 5 6 6 5 5 6 7 7 7 8 8 8 7 7 7 8 8 8 8 8 8 8 8 8 8 8 7 7 7 8 8 9 9 9 9 11
10 9 9 8 7 8 9 9 9 10 9 8 9 8 8 10 11 11 11 12 13 14 15 16 16 16 16 15 14 15 15 15 14 14 14 12 10 9 8 8 9 9 8 7 6 6 5 5 6 5 4 3 4 4 4 4 5 5 6 6 6 7 7 7 7 6 6 6 6 7 7 7 7 7 6 6 6 6 6 5 5 6 7 9 9 8 9
11 10 9 7 7 8 10 10 9 10 9 9 9 9 9 10 11 11 12 13 14 15 16 17 17 17 16 16 15 16 16 15 14 14 14 12 11 10 9 9 9 9 8 7 7 6 5 5 5 4 3 2 2 2 3 3 4 4 4 4 5 5 6 6 6 6 6 6 6 7 7 7 7 6 5 5 5 5 5 5 5 5 5 7 8 7 7
11 11 10 9 8 8 9 8 9 10 10 9 9 10 11 12 12 12 13 13 14 15 17 17 17 17 17 16 16 16 16 16 15 15 13 12 12 11 10 10 10 9 8 8 8 7 6 6 5 3 2 1 1 1 3 5 4 3 2 3 3 4 4 5 5 6 6 6 6 6 6 6 6 6 5 4 4 4 4 4 4 5 5 5 6 6 6
10 10 10 10 9 8 8 8 9 11 11 10 10 10 11 12 13 13 13 13 14 16 16 17 17 17 16 16 16 16 17 16 16 15 14 14 13 12 10 10 9 7 7 8 9 7 7 7 5 3 2 3 2 2 5 7 6 3 2 3 3 3 4 5 5 5 6 6 5 5 4 4 4 4 4 4 4 4 4 4 4 4 5 5 5 5 5
9 9 10 10 9 9 9 9 10 11 12 11 11 11 12 13 14 14 13 13 14 15 16 16 16 16 16 17 17 17 17 16 16 16 16 15 14 12 11 9 8 8 8 10 9 8 8 8 5 3 3 4 3 3 6 9 7 4 3 4 4 4 4 5 6 6 6 6 5 4 4 4 3 3 2 2 3 4 5 5 5 4 4 4 5 5 4
9 9 10 9 9 9 10 10 10 11 12 12 11 12 13 14 14 14 13 14 14 15 16 16 16 15 16 17 17 17 16 16 16 16 16 16 15 13 11 10 10 10 11 11 10 10 10 8 5 4 5 5 4 6 8 8 7 6 5 5 5 5 5 6 6 5 6 5 5 4 4 3 2 2 2 2 3 3 3 4 4 3 3 3 4 4 4
9 10 10 9 9 9 10 10 10 11 11 12 12 12 14 15 15 14 13 14 14 15 15 16 16 16 16 17 17 17 16 16 16 17 17 17 16 14 11 11 12 13 14 14 13 11 9 7 5 5 5 5 7 10 10 8 7 7 6 6 6 6 6 6 5 5 5 4 3 3 3 2 2 3 3 3 3 3 3 3 3 3 3 3 3 3 4
10 10 9 8 8 9 11 11 11 11 11 12 12 12 13 14 14 13 13 14 15 15 15 15 15 16 16 16 17 17 16 16 16 16 17 17 16 13 9 11 15 17 18 17 13 10 8 7 6 7 7 8 10 12 11 8 7 7 7 7 7 6 5 5 5 4 4 4 3 3 3 3 3 3 3 3 3 3 3 3 3 3 3 2 2 3 4
9 9 8 8 9 10 10 11 11 10 10 11 12 13 13 13 13 14 14 15 15 15 15 15 16 16 16 17 17 17 16 17 17 16 16 16 15 12 9 12 16 20 20 17 12 10 9 7 7 9 10 11 13 13 10 7 7 8 8 7 7 6 5 5 5 4 4 4 3 3 3 3 2 3 3 3 3 3 3 3 3 3 3 3 3 4 4
7 7 7 9 10 10 10 11 10 10 10 11 12 12 13 13 13 13 14 14 15 15 16 16 17 17 18 18 17 16 16 17 17 17 16 15 13 12 13 14 17 21 22 18 12 10 9 8 9 11 12 13 14 13 9 7 7 8 7 7 7 6 6 6 6 5 5 4 4 3 3 3 3 3 2 2 3 3 3 3 3 3 3 4 4 4 4
6 6 7 9 10 9 9 10 10 10 11 11 11 10 11 11 11 11 12 12 13 13 14 14 16 17 17 17 16 15 15 15 15 17 18 15 13 14 18 18 19 23 24 19 13 10 10 11 12 12 12 13 14 12 8 7 8 8 7 7 6 6 6 6 6 5 5 4 4 4 3 3 3 3 3 3 3 4 4 4 4 3 3 3 3 4 4
5 6 6 7 8 8 9 9 10 10 10 9 8 9 10 11 10 9 9 9 9 9 9 10 12 13 15 17 16 16 16 14 13 14 16 14 11 14 20 21 21 24 25 20 13 11 12 13 14 12 11 12 12 10 7 8 8 7 7 6 6 5 6 6 5 5 5 4 4 4 3 3 3 4 4 4 4 5 5 4 4 4 4 4 3 4 4
5 5 5 6 7 8 9 9 8 8 8 7 7 8 11 13 12 10 10 11 11 10 9 10 10 10 13 15 15 16 18 17 14 14 15 14 12 16 21 23 24 27 25 18 12 11 14 16 15 12 11 12 11 8 8 9 9 7 7 7 6 5 5 5 5 4 5 4 4 4 4 4 4 4 4 5 5 4 4 4 4 4 4 4 2 2 3
6 6 6 6 6 7 8 7 6 6 6 7 8 9 12 14 14 12 12 13 13 13 13 14 13 12 13 14 14 14 15 13 11 12 14 12 10 12 17 20 24 27 24 17 12 13 15 16 15 13 12 11 10 8 9 9 9 7 7 7 6 5 5 5 4 4 4 4 4 4 4 4 4 4 4 5 4 4 4 4 2 1 2 2 2 2 3
7 6 6 6 6 6 5 5 5 6 7 8 8 10 12 13 13 13 13 14 13 13 14 15 14 13 12 13 13 11 9 7 7 12 17 15 12 13 16 19 24 26 22 16 13 16 17 17 15 15 13 11 9 9 9 9 8 7 7 6 6 5 5 4 4 4 4 3 4 4 4 4 4 4 4 4 4 4 4 3 1 1 1 2 3 4 5
6 5 6 6 6 6 5 5 6 7 8 8 9 10 11 11 10 10 12 14 14 13 12 12 12 12 11 10 9 11 12 12 12 15 18 19 19 20 21 22 25 25 21 15 14 17 17 16 15 14 13 10 10 10 10 10 9 8 7 6 5 5 5 5 5 5 4 4 4 5 4 4 5 5 5 4 4 4 4 3 2 2 3 3 4 4 3
5 5 6 6 6 6 6 7 7 7 8 8 9 10 10 9 7 7 9 12 12 11 10 9 9 9 9 10 12 13 14 14 14 15 18 20 21 21 20 21 22 21 18 15 16 17 16 15 15 14 12 11 10 10 10 9 8 8 7 6 6 5 5 5 5 5 5 5 5 5 5 5 5 5 5 4 4 4 4 4 3 3 3 2 3 3 4
Wind_Direction
204 201 196 197 240 268 286 276 275 271 249 246 259 271 288 296 280 292 336 311 290 297 300 305 330 330 315 333 5 0 25 52 46 10 351 15 17 13 24 12 348 337 329 322 310 293 275 262 254 249 249 247 240 232 225 219 214 208 204 204 203 201 198 197 200 203 204 203 205 207 208 211 214 217 219 219 218 216 215 215 215 216 217 218 218 219 221
200 206 214 219 233 246 256 262 269 267 258 256 264 277 286 285 281 288 299 294 288 289 294 310 343 337 324 334 297 290 31 46 25 340 334 16 21 14 24 18 4 0 346 322 307 300 287 273 262 249 244 244 242 239 234 227 222 216 210 207 206 207 206 201 197 199 203 204 203 203 204 206 209 212 216 218 218 219 219 219 220 220 220 221 222 221 221
214 211 223 233 241 251 257 264 271 264 265 266 261 268 280 277 280 289 293 290 286 287 323 335 337 311 285 245 247 257 338 7 346 309 314 6 19 12 20 18 14 10 354 339 323 312 301 287 275 265 256 248 242 239 237 233 229 222 215 214 213 211 211 210 202 197 198 201 202 202 202 204 206 209 213 216 217 218 219 219 219 219 220 221 223 224 224
244 211 226 239 243 253 255 260 265 254 250 261 262 265 270 268 285 295 286 287 310 78 87 281 244 256 263 253 253 256 268 300 297 287 298 341 353 345 357 7 7 356 344 342 335 324 315 303 289 276 266 255 244 239 237 233 230 224 218 218 219 217 213 212 207 200 197 197 199 201 202 205 208 210 214 216 217 218 219 219 217 216 217 218 219 223 226
261 188 231 253 248 253 255 254 263 252 239 249 260 266 260 253 271 288 289 316 7 51 263 267 264 270 281 285 288 282 276 272 271 277 282 288 307 317 322 330 339 334 328 322 317 314 308 302 296 286 274 261 249 242 239 235 229 224 220 219 222 222 216 211 208 204 199 196 197 200 202 205 207 210 214 215 216 218 219 220 220 218 217 218 219 223 226
263 155 248 263 249 254 260 99 290 280 265 259 261 266 262 241 243 273 294 308 315 301 283 291 295 292 308 340 330 300 269 261 265 270 266 268 280 286 294 304 310 310 308 304 302 300 296 295 295 289 277 265 255 245 238 237 232 226 221 218 220 222 218 211 207 205 203 200 198 199 201 202 203 206 211 213 214 215 216 217 219 218 219 219 219 221 223
277 303 256 254 255 264 105 116 155 280 285 272 270 277 281 263 254 263 275 279 278 278 281 284 283 279 295 309 286 268 252 255 275 284 275 284 298 298 305 313 310 304 301 299 297 294 294 295 295 290 281 268 260 248 236 231 230 227 222 218 217 218 216 211 207 204 204 203 201 200 200 200 200 202 207 211 213 213 212 213 213 215 218 220 219 219 218
272 272 249 255 286 306 221 175 162 166 231 245 257 267 259 247 257 261 266 277 280 259 243 228 199 250 274 267 255 245 243 248 274 292 302 318 315 310 309 305 304 303 298 296 297 297 298 300 297 294 289 278 267 255 241 232 227 226 223 219 217 215 212 210 208 203 202 203 202 201 199 199 202 204 205 209 212 213 214 214 213 213 215 217 218 217 215
258 270 263 267 290 284 254 216 186 201 231 231 248 270 250 210 249 259 262 276 272 190 187 180 152 246 271 260 229 198 213 238 264 285 306 316 307 301 300 299 301 302 300 301 305 306 304 303 304 303 294 283 272 259 246 237 230 227 225 221 218 214 209 209 207 201 200 202 201 199 197 198 203 206 207 208 209 210 214 216 216 215 214 214 215 217 217
241 273 276 268 271 274 267 163 156 192 232 223 232 272 267 189 216 244 253 270 249 167 171 167 163 219 263 264 205 157 179 223 272 289 302 303 300 306 309 308 307 307 311 315 313 312 311 313 316 310 296 285 276 259 245 236 229 228 228 225 223 217 209 209 207 201 199 200 197 197 197 198 203 207 209 210 207 206 210 216 220 221 219 218 217 217 219
238 263 273 266 271 292 45 113 139 157 200 194 206 265 270 139 134 182 240 252 201 181 186 177 179 228 265 281 105 127 155 186 283 307 311 308 313 321 319 319 319 320 327 324 315 317 328 332 326 314 299 292 282 261 241 233 229 229 231 230 229 225 216 210 205 196 193 191 191 197 200 200 205 209 210 211 206 202 207 216 222 221 219 217 214 214 216
243 249 260 264 275 316 117 146 143 137 165 195 226 260 279 102 107 124 217 237 198 190 193 192 209 249 287 347 84 112 139 156 231 307 314 313 322 328 331 340 337 330 331 327 318 335 355 340 329 321 310 305 302 270 238 231 232 233 235 235 233 231 225 210 195 185 181 182 187 199 203 201 205 207 208 210 203 196 202 214 219 216 213 214 213 210 208
245 242 256 270 278 108 129 149 143 139 164 209 248 273 34 90 91 96 149 220 205 194 203 221 239 271 4 75 107 126 143 206 256 297 315 310 317 329 339 351 346 336 337 336 326 1 8 347 338 342 342 353 17 29 236 252 281 258 248 245 234 229 227 205 178 171 179 185 188 198 203 202 204 208 209 210 203 195 199 207 210 201 195 200 203 199 193
259 258 264 270 276 120 139 146 138 156 196 242 274 307 87 73 48 103 175 218 203 204 221 240 260 58 118 140 150 151 163 256 287 305 314 309 319 337 344 351 351 344 349 4 15 23 12 349 349 15 39 56 62 66 75 63 35 13 286 229 207 205 206 192 158 152 176 188 191 197 201 201 205 209 209 210 206 201 198 200 200 194 189 194 197 191 184
264 267 254 262 283 137 154 151 145 189 226 293 53 129 121 65 98 161 205 219 218 226 229 228 228 195 164 171 180 185 190 253 316 329 325 314 321 339 350 358 0 357 6 31 40 33 16 356 10 46 63 71 68 62 67 77 82 75 89 168 181 180 180 179 171 168 176 185 192 194 194 198 202 204 205 207 207 203 200 201 200 196 196 200 198 189 180
248 265 254 260 334 145 169 172 162 203 197 79 42 305 19 108 200 231 237 215 221 237 238 228 216 193 173 181 201 221 223 214 349 340 332 324 329 343 359 12 13 13 28 43 45 40 26 18 35 52 64 75 71 59 55 65 86 103 113 133 148 146 142 148 161 165 156 156 188 192 187 194 203 206 204 201 200 200 202 205 201 193 194 201 198 191 185
230 284 331 76 102 155 178 188 93 113 130 94 8 298 314 217 219 250 256 228 208 220 233 229 212 190 176 187 203 222 227 210 32 344 333 338 348 355 6 19 25 32 47 52 55 56 41 28 34 43 53 66 67 61 59 65 77 95 110 115 118 125 132 136 145 149 138 129 151 178 188 198 212 219 210 196 193 196 199 205 205 196 192 195 194 191 186
207 248 108 136 156 169 178 180 136 108 123 125 169 243 276 293 201 226 273 288 210 196 214 216 199 180 172 179 192 207 212 193 88 11 349 358 9 12 17 26 32 38 51 58 64 67 56 41 38 44 52 59 61 60 63 69 76 86 95 98 100 107 115 118 123 129 127 122 124 135 147 153 172 218 219 201 189 189 192 200 205 196 185 184 183 179 172
210 211 181 175 181 183 183 181 178 181 161 143 168 223 251 97 196 218 285 319 184 184 200 198 171 156 160 177 187 188 182 166 124 72 37 25 26 28 28 30 32 36 47 58 65 66 61 55 50 49 53 58 61 61 62 68 81 91 92 92 91 91 94 99 104 107 107 108 110 115 119 122 122 130 149 150 143 149 166 180 176 161 154 157 161 157 150
220 185 149 157 160 172 189 194 193 196 190 170 174 205 199 156 192 199 147 184 191 175 166 155 143 144 162 181 184 173 167 161 132 95 66 46 38 36 34 33 36 41 48 59 67 63 58 59 62 61 60 62 65 67 69 74 86 91 93 92 90 87 83 81 85 92 96 99 102 103 104 111 113 109 108 112 112 113 124 140 145 147 146 147 152 154 150
218 165 145 159 163 174 201 217 212 193 185 179 178 191 202 194 192 184 170 184 185 158 143 141 145 154 167 179 178 167 157 144 125 104 82 66 55 48 45 43 44 44 42 50 65 66 62 65 70 73 73 71 72 76 80 86 92 92 91 90 86 83 82 81 84 91 94 95 96 95 94 96 97 93 95 106 113 111 115 130 145 147 142 141 148 154 153
237 219 172 171 186 203 207 214 208 188 178 181 180 185 198 203 199 187 171 162 154 142 137 144 157 162 164 171 174 163 147 133 118 104 88 73 65 58 53 51 52 51 47 51 60 62 61 64 70 76 78 76 77 83 87 92 96 97 96 93 87 80 77 77 81 86 88 89 90 90 90 91 90 87 87 95 104 107 111 124 137 137 132 133 139 145 149
261 222 166 176 202 251 160 187 192 181 178 184 184 188 202 205 197 184 174 163 151 141 139 151 162 161 161 169 170 153 139 131 120 110 97 78 73 69 62 60 62 60 56 57 60 60 60 65 72 77 76 74 76 84 92 96 99 99 97 96 93 86 81 80 82 86 90 92 92 93 95 96 96 92 87 84 85 87 92 99 106 110 115 122 130 136 141
44 109 155 177 198 152 116 137 162 168 175 186 188 191 202 201 188 178 176 168 155 148 149 156 159 160 163 166 164 152 143 139 131 120 105 90 88 87 82 78 76 71 64 61 63 65 67 70 75 76 74 72 76 81 89 95 96 97 98 98 97 95 92 92 93 93 92 92 94 99 103 103 104 103 95 86 82 80 81 86 92 97 102 107 113 119 122
70 84 114 139 143 113 114 126 141 155 171 187 190 190 193 192 184 176 174 167 157 156 161 158 155 161 166 163 158 153 146 138 131 126 116 103 98 97 91 86 80 77 75 74 76 80 81 80 82 83 82 83 85 87 90 93 94 96 100 101 101 100 99 99 97 96 96 95 96 101 101 98 98 101 100 97 93 89 88 89 92 96 100 103 106 109 110
66 82 105 119 119 114 128 143 148 158 171 181 184 183 175 166 168 174 176 167 157 159 166 161 154 159 165 161 154 149 143 139 138 138 131 115 106 102 101 99 93 88 88 86 84 87 89 88 89 89 88 89 92 94 96 97 96 97 98 99 99 99 100 102 100 98 99 100 101 103 102 96 95 96 98 102 107 107 105 101 97 95 96 98 101 104 105
113 141 147 145 144 161 181 183 152 159 170 175 177 176 166 154 158 173 174 163 156 160 165 162 157 159 161 156 148 143 145 149 152 148 133 117 111 109 111 113 110 104 98 94 89 90 93 94 93 90 89 90 94 97 97 95 93 93 93 94 93 93 94 97 98 98 100 101 101 101 99 94 93 95 95 97 100 104 106 106 104 100 95 92 95 101 104
179 182 184 186 177 183 185 171 134 150 163 170 174 173 166 160 166 176 173 161 156 158 160 161 164 165 160 154 149 149 155 160 157 146 130 117 114 115 116 117 116 110 103 100 96 94 94 95 94 92 89 90 93 96 97 94 92 92 93 94 95 93 92 93 95 97 99 98 96 95 95 94 93 94 93 94 94 95 95 98 101 101 97 94 95 98 102
193 194 194 342 12 140 151 146 147 156 163 170 174 173 174 176 178 182 177 165 158 157 159 163 169 170 165 158 155 157 163 166 158 144 131 120 118 119 119 118 114 109 105 100 96 95 94 93 94 93 91 92 95 97 97 96 94 95 96 97 96 95 93 93 96 98 99 99 97 96 96 96 97 97 97 96 97 97 96 96 97 99 102 104 103 99 100
181 186 186 166 138 154 152 153 165 171 169 174 178 180 186 190 189 188 181 170 163 160 160 163 168 171 167 162 160 163 166 163 154 145 137 131 127 126 126 127 122 117 111 104 98 96 94 92 92 91 88 91 98 100 99 98 96 95 94 93 94 97 96 94 98 101 102 102 103 103 102 101 100 100 100 99 99 99 99 99 101 102 106 109 108 105 106
158 169 181 179 177 176 167 162 173 178 175 179 185 187 191 197 198 193 184 174 168 164 162 163 168 172 169 164 164 165 161 153 148 146 141 138 140 139 140 141 134 123 117 111 105 101 97 94 92 86 79 84 95 100 102 102 102 100 98 98 101 103 101 99 101 102 101 102 104 103 103 102 102 103 103 102 103 104 103 105 107 106 106 107 105 104 108
163 167 181 193 195 189 178 170 177 181 180 185 192 193 194 199 201 194 186 180 172 163 162 167 170 170 168 167 166 164 159 153 151 151 148 149 153 153 149 144 131 119 116 113 108 104 102 99 94 87 79 79 89 101 106 108 108 107 107 109 111 109 104 103 106 106 104 105 105 103 103 104 104 104 103 103 103 104 104 104 104 104 105 107 106 108 118
188 183 188 193 194 194 190 186 189 190 186 187 195 197 196 200 202 194 186 183 174 164 164 170 170 167 167 168 165 163 161 157 156 157 159 161 161 155 147 137 125 116 109 104 102 103 104 101 98 94 86 80 84 97 106 109 110 111 112 115 116 114 109 110 114 113 111 110 108 107 108 109 108 107 107 106 106 106 105 103 103 103 104 104 105 116 133
216 222 218 204 197 199 199 193 191 194 191 190 194 196 195 197 199 191 183 182 178 171 168 168 166 165 167 168 164 163 165 165 165 167 168 168 165 159 148 133 121 112 103 97 99 99 98 97 97 95 90 86 87 92 100 107 111 111 113 118 121 121 118 120 123 120 114 111 111 112 114 115 113 113 114 114 114 114 112 110 109 109 108 109 113 126 138
233 247 249 228 212 216 222 210 194 190 191 191 190 191 193 194 191 180 176 180 180 172 165 164 163 166 169 167 164 166 172 174 172 171 171 170 168 161 149 136 126 120 110 101 99 99 96 98 102 98 93 95 95 90 92 107 114 115 116 121 123 124 123 122 122 119 118 122 126 125 120 117 117 119 120 121 122 123 125 126 125 123 121 122 126 138 147
234 243 251 240 217 216 229 226 204 190 190 192 190 188 188 189 185 176 173 177 176 168 163 163 164 168 171 169 167 171 177 177 174 174 174 171 167 163 158 150 143 137 128 118 116 112 108 117 128 121 101 93 92 88 87 95 104 114 123 126 125 128 129 125 122 121 122 128 130 123 115 113 117 123 131 135 136 136 137 139 144 146 141 137 139 148 156
230 232 238 237 218 210 215 214 200 189 188 190 189 186 183 182 182 177 173 175 173 168 164 165 168 171 173 172 171 174 178 178 176 175 174 170 168 168 165 160 158 158 155 150 144 135 128 141 149 138 108 81 85 105 121 119 108 114 135 142 138 139 138 134 132 130 125 124 129 131 130 129 129 131 140 145 146 153 159 159 163 169 159 150 151 158 166
229 228 228 228 223 216 209 200 193 191 188 184 184 185 182 179 177 175 174 175 172 168 167 169 171 173 174 173 173 177 180 179 177 175 173 171 171 173 174 174 176 179 174 161 151 147 149 153 148 127 109 118 120 150 170 164 147 137 154 154 143 144 144 138 134 132 129 128 133 137 136 133 131 133 139 141 144 155 162 158 161 169 169 164 165 170 174
225 221 218 217 216 210 200 191 190 191 188 184 182 181 178 177 175 175 177 176 172 169 171 172 173 174 175 175 176 179 180 178 176 175 173 173 174 178 182 182 183 183 170 155 151 153 156 152 138 118 126 140 132 159 181 176 165 162 172 159 149 157 156 144 136 134 133 132 133 134 130 125 122 124 125 130 143 154 153 148 156 167 167 166 167 168 172
212 209 207 205 203 198 192 188 189 190 188 186 183 177 174 175 175 176 177 174 170 170 173 173 173 176 178 179 180 180 178 177 177 176 174 174 177 182 183 180 178 178 170 162 159 159 155 149 143 140 148 148 141 159 173 172 167 167 175 168 161 162 158 150 149 151 146 142 144 146 137 127 121 117 114 128 154 161 157 158 169 179 177 173 173 170 169
204 202 198 194 193 192 189 187 186 184 183 183 183 178 175 174 176 178 177 172 169 171 175 176 177 179 181 183 183 180 175 175 177 176 176 176 179 185 188 182 173 172 172 169 168 164 157 152 155 158 154 156 158 154 156 162 166 165 162 162 160 157 155 155 156 154 149 151 155 153 144 141 147 153 155 160 159 157 158 162 170 178 176 171 172 171 173
200 196 190 186 187 186 182 181 181 178 176 179 181 179 177 178 179 179 175 168 167 171 176 179 181 181 181 182 182 177 175 176 177 178 181 184 186 193 196 179 167 171 177 175 170 166 161 159 164 163 155 158 162 155 151 154 161 157 151 149 148 146 147 149 149 144 145 153 157 154 156 173 173 162 162 166 162 159 164 167 164 167 167 163 164 173 184
197 190 185 185 183 178 176 178 177 174 174 177 176 176 177 179 179 177 172 168 168 172 176 179 182 182 180 180 179 177 177 179 178 180 187 191 193 199 195 168 163 176 183 177 169 169 170 166 167 168 164 162 159 154 151 154 158 152 146 144 143 143 144 145 147 152 158 164 166 164 165 173 170 163 167 173 166 159 167 172 170 170 172 169 174 186 192
195 190 184 179 174 171 172 175 176 174 174 173 173 174 176 176 177 178 175 171 171 174 176 178 181 183 182 181 181 180 181 182 181 184 189 192 194 199 188 167 170 180 182 174 170 176 176 168 170 175 172 167 162 157 157 162 160 151 146 146 147 147 148 149 153 159 160 156 156 155 152 158 170 170 168 171 168 164 170 176 170 162 165 172 180 184 180
187 187 179 171 168 169 172 175 176 174 168 163 165 172 176 177 178 179 177 173 174 176 178 180 181 183 184 186 186 185 185 184 183 186 189 192 195 192 180 169 173 179 178 174 175 180 175 170 174 173 170 169 168 165 165 168 161 153 151 151 148 146 149 151 151 152 149 146 148 149 151 160 174 170 162 168 172 165 160 162 158 159 170 181 180 174 166
159 164 166 166 167 170 171 169 166 161 157 155 160 170 175 175 175 175 177 177 177 177 179 184 185 185 186 187 186 183 183 185 187 192 196 200 201 191 180 173 175 179 179 177 176 176 173 174 175 171 167 171 174 173 172 172 166 159 156 155 150 150 154 153 148 149 150 147 145 144 142 147 154 147 136 140 145 140 140 147 151 154 159 154 131 118 124
128 137 147 156 157 156 155 153 153 156 162 165 168 168 167 165 164 164 166 170 171 172 178 184 186 188 190 188 184 181 181 182 187 194 198 198 191 179 174 173 177 182 182 178 175 175 173 172 171 169 169 172 176 178 179 176 171 165 162 160 158 157 156 152 150 154 152 144 138 138 138 141 149 147 141 143 145 143 145 150 151 153 158 151 131 128 143
101 112 122 135 142 144 146 149 155 165 172 174 169 162 158 158 160 160 158 158 161 163 166 171 181 192 197 195 191 188 186 186 188 192 193 190 181 171 169 173 180 182 179 173 171 177 178 174 171 170 171 172 176 183 185 179 174 172 167 164 163 162 160 160 164 166 158 153 158 165 164 162 160 156 156 158 156 155 163 174 180 183 185 183 175 176 192
94 102 113 123 131 139 148 156 163 167 167 163 159 155 152 154 161 169 169 165 164 168 173 178 185 192 196 200 204 202 197 197 197 185 175 171 164 157 160 170 178 179 174 169 168 174 177 175 171 169 170 174 178 183 182 177 174 173 169 166 165 163 160 157 157 156 155 161 168 170 167 165 161 159 163 165 162 167 182 186 183 191 198 188 188 209 221
109 117 120 119 120 130 144 151 150 152 156 157 156 155 156 159 167 179 183 180 180 184 188 189 188 188 194 203 206 195 181 178 172 161 157 158 157 157 163 175 180 176 171 169 167 167 170 173 171 168 170 175 176 174 172 170 168 165 164 162 160 155 149 145 146 151 157 165 165 163 164 166 163 166 173 173 170 178 186 179 145 34 256 219 223 231 230
113 116 111 109 113 118 118 115 120 136 148 151 150 157 166 173 178 187 192 192 192 194 195 192 187 188 193 192 178 167 168 175 174 167 166 171 172 169 172 178 178 173 169 167 163 161 165 170 170 169 172 174 168 163 161 161 159 158 158 159 158 155 156 160 164 165 162 160 159 159 164 167 168 173 179 176 171 181 193 193 193 213 222 224 231 229 209
91 94 100 107 108 105 102 103 112 128 142 148 152 163 176 184 186 192 201 204 202 199 195 187 186 191 188 171 160 165 177 183 178 171 169 170 170 169 169 170 169 167 167 165 161 159 163 167 169 170 172 171 163 157 156 155 154 155 155 157 158 157 157 160 161 157 155 158 160 160 161 165 170 175 180 181 183 193 200 201 200 204 205 203 197 183 163